Location: Camp at the Woods
(43.2055°N, 93.0905°W)
Time: 11:14:26
(UTC+00:00)

Meteor 2-3 Rocket - Pass Details

Date: 05 December 2023
Orbit: 841 x 885 km, 81.2° (Epoch: 20 February)

Event Time Altitude Azimuth Distance (km) Brightness Sun altitude
Rises 12:09:38 0° 215° (SW) 3,390 6.7 -13.9°
Reaches altitude 10° 12:12:16 10° 225° (SW) 2,456 5.9 -13.5°
Maximum altitude 12:17:15 33° 289° (WNW) 1,382 4.3 -12.6°
Drops below altitude 10° 12:22:16 10° 352° (N) 2,469 5.9 -11.7°
Sets 12:24:56 0° 2° (N) 3,411 6.7 -11.3°
